Location: *
(37.5724°S, 58.0067°E)
Time: 00:48:54
(UTC+00:00)

Cosmos 1842 - Visible Passes

Search period start: 24 January 2021 00:00
Search period end: 03 February 2021 00:00
Orbit: 520 x 537 km, 82.5° (Epoch: 23 January)

Date Brightness Start Highest point End Pass type
(mag) Time Alt. Az. Time Alt. Az. Time Alt. Az.
24 Jan 3.2 23:15:40 59° NW 23:16:15 70° W 23:20:16 10° S visible
25 Jan 3.1 23:05:07 75° WNW 23:05:16 77° W 23:09:18 10° S visible
26 Jan 3.3 22:54:32 77° SSW 22:54:32 77° SSW 22:58:19 10° S visible
27 Jan 3.7 22:43:56 62° S 22:43:56 62° S 22:47:20 10° S visible
28 Jan 4.1 22:33:18 49° SSE 22:33:18 49° SSE 22:36:20 10° S visible
29 Jan 4.6 22:22:40 40° SSE 22:22:40 40° SSE 22:25:20 10° SSE visible
30 Jan 5.0 22:12:00 33° SSE 22:12:00 33° SSE 22:14:20 10° SSE visible
31 Jan 5.3 22:01:19 27° SSE 22:01:19 27° SSE 22:03:19 10° SSE visible
01 Feb 5.6 21:50:37 23° SSE 21:50:37 23° SSE 21:52:18 10° SSE visible
02 Feb 5.9 21:39:55 20° SSE 21:39:55 20° SSE 21:41:17 10° SSE visible
